[[{"header":{"parameterUnit":"m.s-1","parameterCategory":1,"la1":30.2991,"la2":30.254,"lo1":-89.0895,"lo2":-89.0444,"dy":0.0017,"dx":0.0017,"nx":28,"ny":28,"refTime":"2024-10-03T21:00:00:Z","depth":0,"parameterNumber":2,"parameterNumberName":"U-component_of_WINDS"},"data":[0,0,0,0,0,0,0,0,0,0,0,0,0,0,0,0,0,0,0,0,0,0,0,0,0,0,0,0,0,0,0,0,0,0,0,0,0,0,0,0,0,0,0,0,0,0,0,0,0,0,0,0,0,0,0,0,0,0,-2.2082,-2.2081,0,-2.2015,-2.2014,-2.2013,-2.1941,-2.1939,-2.1938,-2.1937,-2.1868,-2.1867,-2.1866,0,0,0,0,0,0,0,0,0,0,0,0,0,-2.2147,-2.2146,-2.2082,-2.2081,-2.208,-2.2015,-2.2014,-2.2013,-2.1941,-2.1939,-2.1938,-2.1937,-2.1868,-2.1867,-2.1866,0,0,0,0,0,0,0,0,0,0,0,0,0,-2.2103,-2.2146,-2.2082,-2.2036,-2.2032,-2.2015,-2.2014,-2.2013,-2.1941,-2.1939,-2.1938,-2.1936,-2.1869,-2.1867,-2.1866,-2.1889,0,0,-2.1862,-2.1861,0,0,0,0,0,0,0,0,-2.2106,-2.2101,-2.2044,-2.204,-2.2034,-2.1984,-2.2011,-2.1971,-2.1941,-2.1975,-2.1937,-2.1936,-2.1908,-2.1903,-2.1894,-2.1886,-2.1883,-2.1862,-2.1861,-2.186,-2.186,0,0,0,0,0,0,0,-2.2109,-2.2103,-2.2055,-2.2043,-2.2037,-2.2019,-2.2011,-2.2003,-2.1951,-2.1972,-2.1967,-2.196,-2.1905,-2.1895,-2.1892,-2.1882,-2.1862,-2.1861,-2.186,-2.1859,-2.1888,-2.189,0,0,0,0,0,0,-2.2119,-2.2106,-2.2058,-2.2053,-2.2067,-2.2019,-2.201,-2.2002,-2.1951,-2.1942,-2.1961,-2.1957,-2.1898,-2.1893,-2.1889,-2.1912,-2.186,-2.1859,-2.1858,-2.1887,-2.1889,-2.189,0,0,0,0,0,0,-2.2121,-2.2115,-2.206,-2.2078,-2.207,-2.202,-2.2011,-2.2002,-2.1992,-2.1943,-2.1933,-2.1961,-2.1897,-2.1891,-2.1889,-2.1909,-2.1859,-2.1857,-2.1885,-2.1887,-2.1889,-2.1959,0,0,0,0,0,0,-2.2123,-2.2116,-2.2125,-2.2079,-2.2069,-2.2062,-2.2012,-2.2001,-2.199,-2.1983,-2.194,-2.1932,-2.1895,-2.1892,-2.1888,-2.1906,-2.1856,-2.1883,-2.1886,-2.1889,-2.1955,-2.1963,-2.1971,0,0,0,0,0,-2.2125,-2.2147,-2.2126,-2.212,-2.2079,-2.2063,-2.2058,-2.2016,-2.1992,-2.2,-2.1968,-2.1933,-2.1908,-2.1892,-2.1887,-2.1905,-2.1881,-2.1885,-2.1889,-2.1951,-2.1962,-2.1971,0,0,0,0,0,0,-2.2196,-2.214,-2.2116,-2.2123,-2.2099,-2.2051,-2.206,-2.2029,-2.201,-2.2005,-2.1953,-2.1944,-2.1949,-2.1927,-2.1911,-2.1925,-2.1889,-2.1892,-2.1939,-2.1948,-2.1956,-2.1961,-2.1855,0,0,0,0,0,-2.2212,-2.2205,-2.2156,-2.2168,-2.2157,-2.2111,-2.2102,-2.2072,-2.2045,-2.2034,-2.2002,-2.1976,-2.1962,-2.1954,-2.1939,-2.1952,-2.1941,-2.1961,-2.197,-2.1976,-2.1979,-2.1984,-2.1992,-2.1902,-2.1902,-2.1902,0,0,-2.2246,-2.2215,-2.2213,-2.2181,-2.2158,-2.2151,-2.2102,-2.2097,-2.2091,-2.2033,-2.2029,-2.2005,-2.1973,-2.1979,-2.198,-2.1961,-2.2002,-2.1981,-2.1987,-2.1986,-2.1988,-2.1997,-2.2005,-2.1904,-2.1904,-2.1903,0,0,-2.2304,-2.228,-2.2286,-2.2265,-2.2231,-2.22,-2.2202,-2.216,-2.2141,-2.2137,-2.2093,-2.2086,-2.2063,-2.2042,-2.2028,-2.2078,-2.2045,-2.2075,-2.2117,-2.2122,-2.2129,-2.2135,-2.2152,-2.2159,-2.2078,-2.2078,-2.2078,0,-2.235,-2.2338,-2.2293,-2.2291,-2.2278,-2.2225,-2.2231,-2.2212,-2.2176,-2.2168,-2.2147,-2.2118,-2.2092,-2.2092,-2.2104,-2.2095,-2.2095,-2.2079,-2.2132,-2.2137,-2.2142,-2.2158,-2.2165,-2.2082,-2.2081,-2.2081,-2.2081,0,-2.2396,-2.2388,-2.2398,-2.2364,-2.2352,-2.2354,-2.2309,-2.2302,-2.2274,-2.2245,-2.2242,-2.2209,-2.2186,-2.2184,-2.2156,-2.218,-2.2169,-2.2141,-2.2104,-2.2155,-2.2169,-2.2175,-2.2087,-2.2086,-2.2085,-2.2084,0,0,-2.2495,-2.2437,-2.2441,-2.2425,-2.2385,-2.2378,-2.2377,-2.2355,-2.235,-2.2326,-2.2324,-2.2307,-2.228,-2.2265,-2.2233,-2.2238,-2.228,-2.2209,-2.2207,-2.2223,-2.2303,-2.2325,-2.2332,-2.2258,-2.2259,-2.2259,-2.2306,0,-2.2546,-2.2541,-2.2502,-2.2509,-2.2501,-2.2451,-2.245,-2.2425,-2.2399,-2.2388,-2.2358,-2.2346,-2.2313,-2.2303,-2.2305,-2.2274,-2.2295,-2.227,-2.2255,-2.2255,-2.2263,-2.234,-2.2362,-2.2407,-2.2311,-2.2312,-2.2313,0,-2.2603,-2.2584,-2.259,-2.2549,-2.2544,-2.2545,-2.2521,-2.2511,-2.2482,-2.2462,-2.2446,-2.2411,-2.2407,-2.2373,-2.2367,-2.2351,-2.2342,-2.2326,-2.2327,-2.2323,-2.2286,-2.2338,-2.2421,-2.2428,-2.2321,-2.2321,-2.232,0,-2.2675,-2.265,-2.265,-2.2638,-2.2591,-2.2592,-2.2572,-2.2541,-2.253,-2.251,-2.2502,-2.2481,-2.247,-2.2455,-2.2415,-2.2394,-2.2413,-2.2376,-2.2396,-2.2397,-2.2402,-2.2402,-2.2484,-2.2398,-2.2398,-2.2397,-2.2397,0,-2.2734,-2.274,-2.2682,-2.2682,-2.2687,-2.2641,-2.2647,-2.2622,-2.2595,-2.259,-2.2545,-2.2541,-2.2489,-2.2479,-2.2448,-2.2447,-2.2443,-2.2426,-2.2418,-2.243,-2.2432,-2.2423,-2.2418,-2.2399,-2.2399,-2.2398,-2.2398,0,-2.2814,-2.2776,-2.2773,-2.2728,-2.2717,-2.2723,-2.2684,-2.2683,-2.2654,-2.2647,-2.2643,-2.2597,-2.2583,-2.2542,-2.2517,-2.2496,-2.2504,-2.2489,-2.2514,-2.2509,-2.2531,-2.2529,-2.2609,-2.2617,-2.2527,-2.2528,-2.2529,0,-2.2855,-2.2858,-2.2814,-2.2807,-2.2789,-2.2779,-2.2768,-2.2723,-2.2713,-2.268,-2.2682,-2.2664,-2.2647,-2.2627,-2.2591,-2.2572,-2.2555,-2.2585,-2.2552,-2.2564,-2.2555,-2.2555,-2.2554,-2.2592,-2.2593,-2.2594,-2.2595,0,-2.293,-2.2911,-2.2896,-2.2876,-2.2863,-2.2845,-2.2823,-2.282,-2.277,-2.2761,-2.2746,-2.2733,-2.2708,-2.269,-2.2665,-2.2645,-2.2611,-2.2605,-2.2609,-2.2621,-2.2635,-2.2627,-2.2533,-2.2604,-2.2603,-2.2602,-2.2602,-2.2601,-2.2991,-2.2991,-2.296,-2.2946,-2.2925,-2.2906,-2.2902,-2.2873,-2.286,-2.2836,-2.281,-2.2798,-2.2768,-2.2731,-2.2713,-2.2702,-2.2685,-2.269,-2.2691,-2.2693,-2.2698,-2.2638,-2.2698,-2.2697,-2.2697,-2.2697,-2.2697,0,-2.3063,-2.3041,-2.3028,-2.3,-2.2989,-2.2959,-2.2934,-2.2926,-2.2916,-2.2891,-2.2875,-2.2858,-2.2841,-2.2804,-2.2784,-2.2782,-2.2767,-2.2778,-2.2778,-2.2773,-2.2715,-2.2714,-2.2792,-2.2792,-2.2792,-2.2792,-2.2792,-2.2792,-2.31,-2.3099,-2.3076,-2.3064,-2.3041,-2.3029,-2.3017,-2.3,-2.298,-2.2962,-2.2948,-2.2924,-2.2895,-2.2872,-2.2855,-2.2844,-2.2838,-2.2855,-2.284,-2.2786,-2.2777,-2.2769,-2.2767,-2.2855,-2.2855,-2.2899,-2.2899,-2.2899]},{"header":{"parameterUnit":"m.s-1","parameterCategory":1,"la1":30.2991,"la2":30.254,"lo1":-89.0895,"lo2":-89.0444,"dy":0.0017,"dx":0.0017,"nx":28,"ny":28,"refTime":"2024-10-03T21:00:00:Z","depth":0,"parameterNumber":3,"parameterNumberName":"V-component_of_WINDS"},"data":[0,0,0,0,0,0,0,0,0,0,0,0,0,0,0,0,0,0,0,0,0,0,0,0,0,0,0,0,0,0,0,0,0,0,0,0,0,0,0,0,0,0,0,0,0,0,0,0,0,0,0,0,0,0,0,0,0,0,-2.2714,-2.2715,0,-2.2854,-2.2855,-2.2857,-2.291,-2.291,-2.2909,-2.2909,-2.3052,-2.3056,-2.306,0,0,0,0,0,0,0,0,0,0,0,0,0,-2.2493,-2.2497,-2.2713,-2.2715,-2.2717,-2.2853,-2.2855,-2.2857,-2.291,-2.291,-2.2909,-2.2909,-2.3051,-2.3055,-2.3061,0,0,0,0,0,0,0,0,0,0,0,0,0,-2.2606,-2.2498,-2.2713,-2.276,-2.2765,-2.2853,-2.2855,-2.2858,-2.291,-2.291,-2.2909,-2.2908,-2.3049,-2.3055,-2.3061,-2.3113,0,0,-2.308,-2.3083,0,0,0,0,0,0,0,0,-2.26,-2.2615,-2.2751,-2.2757,-2.2763,-2.2864,-2.283,-2.2943,-2.291,-2.2855,-2.2909,-2.2908,-2.299,-2.3001,-2.3029,-2.3119,-2.3126,-2.3081,-2.3085,-2.3088,-2.3089,0,0,0,0,0,0,0,-2.2592,-2.2609,-2.2769,-2.2753,-2.276,-2.2774,-2.279,-2.2852,-2.2924,-2.286,-2.2864,-2.288,-2.2993,-2.3022,-2.3032,-2.3128,-2.3081,-2.3086,-2.309,-2.3093,-2.3272,-2.3273,0,0,0,0,0,0,-2.2576,-2.2602,-2.2764,-2.2773,-2.2678,-2.2779,-2.2796,-2.2832,-2.2924,-2.2937,-2.288,-2.2882,-2.3012,-2.3025,-2.3038,-2.3107,-2.3088,-2.3093,-2.3097,-2.3271,-2.3273,-2.3274,0,0,0,0,0,0,-2.2571,-2.259,-2.2759,-2.2689,-2.2711,-2.2783,-2.2823,-2.2835,-2.2865,-2.2939,-2.2952,-2.2897,-2.3012,-2.3029,-2.3095,-2.3113,-2.3096,-2.3102,-2.327,-2.3272,-2.3273,-2.3244,0,0,0,0,0,0,-2.2565,-2.2588,-2.2608,-2.2689,-2.2715,-2.2813,-2.2824,-2.2838,-2.2876,-2.2879,-2.2958,-2.2971,-2.3013,-2.3085,-2.3101,-2.3121,-2.3107,-2.3269,-2.3271,-2.3273,-2.3244,-2.3245,-2.3245,0,0,0,0,0,-2.2557,-2.2593,-2.2609,-2.2628,-2.2741,-2.2814,-2.2829,-2.2876,-2.2877,-2.2898,-2.2946,-2.2969,-2.3108,-2.3091,-2.311,-2.3132,-2.3268,-2.327,-2.3273,-2.3244,-2.3245,-2.3245,0,0,0,0,0,0,-2.2511,-2.2604,-2.2623,-2.2686,-2.2742,-2.2822,-2.285,-2.2875,-2.2931,-2.2932,-2.2988,-2.3006,-2.3068,-2.3106,-2.3086,-2.3189,-2.319,-2.3196,-2.3162,-2.3163,-2.3163,-2.3154,-2.3112,0,0,0,0,0,-2.2509,-2.256,-2.2639,-2.2687,-2.2714,-2.2777,-2.2811,-2.2843,-2.2903,-2.2926,-2.2979,-2.3037,-2.3094,-2.313,-2.3187,-2.325,-2.327,-2.3274,-2.3275,-2.3275,-2.328,-2.332,-2.3324,-2.3281,-2.3281,-2.3281,0,0,-2.2504,-2.2561,-2.259,-2.268,-2.2727,-2.278,-2.2797,-2.2851,-2.2891,-2.2934,-2.3001,-2.3042,-2.311,-2.3176,-2.3207,-2.321,-2.3296,-2.3278,-2.3277,-2.3283,-2.3323,-2.3327,-2.333,-2.3282,-2.3282,-2.3282,0,0,-2.2523,-2.257,-2.2617,-2.2665,-2.2736,-2.2778,-2.279,-2.2868,-2.2897,-2.2965,-2.2999,-2.3048,-2.3144,-2.3193,-2.323,-2.327,-2.3294,-2.3287,-2.329,-2.3329,-2.3332,-2.3336,-2.3353,-2.3358,-2.3291,-2.3291,-2.3291,0,-2.2507,-2.2588,-2.2638,-2.2692,-2.2732,-2.2775,-2.2824,-2.2868,-2.2953,-2.298,-2.2982,-2.3106,-2.3154,-2.3234,-2.3244,-2.3272,-2.3288,-2.3278,-2.3327,-2.3331,-2.3335,-2.3353,-2.3359,-2.329,-2.329,-2.329,-2.329,0,-2.2568,-2.2623,-2.2653,-2.2737,-2.278,-2.2831,-2.289,-2.2928,-2.2956,-2.2999,-2.3069,-2.3129,-2.32,-2.3221,-2.3249,-2.3306,-2.3306,-2.3316,-2.3319,-2.3338,-2.3355,-2.3362,-2.3288,-2.3289,-2.3289,-2.3289,0,0,-2.256,-2.2673,-2.2684,-2.2724,-2.2807,-2.2852,-2.2906,-2.2976,-2.3009,-2.3067,-2.3115,-2.3197,-2.3209,-2.3251,-2.3285,-2.3319,-2.3352,-2.3326,-2.3329,-2.3332,-2.3422,-2.3415,-2.3422,-2.3367,-2.3369,-2.337,-2.3417,0,-2.2592,-2.2691,-2.2739,-2.2818,-2.2872,-2.2915,-2.2963,-2.3019,-2.3061,-2.3114,-2.316,-2.3219,-2.3228,-2.3255,-2.3289,-2.334,-2.3371,-2.3337,-2.3415,-2.3417,-2.3399,-2.343,-2.3422,-2.3464,-2.3424,-2.3425,-2.3426,0,-2.2641,-2.2701,-2.2786,-2.2866,-2.2891,-2.2933,-2.3003,-2.3052,-2.3119,-2.3147,-2.3196,-2.323,-2.3291,-2.3288,-2.3374,-2.335,-2.3385,-2.3415,-2.3418,-2.3429,-2.3424,-2.3445,-2.3478,-2.3486,-2.3437,-2.3436,-2.3435,0,-2.2631,-2.2732,-2.2797,-2.283,-2.2925,-2.2954,-2.2995,-2.3061,-2.3101,-2.3163,-2.3191,-2.3258,-2.3295,-2.3347,-2.3399,-2.3392,-2.3482,-2.3482,-2.3509,-2.3508,-2.3527,-2.3526,-2.357,-2.3546,-2.3545,-2.3545,-2.3545,0,-2.2662,-2.2712,-2.2795,-2.2834,-2.2893,-2.2949,-2.3006,-2.305,-2.311,-2.316,-2.3201,-2.3247,-2.3312,-2.3368,-2.3409,-2.3476,-2.3492,-2.3518,-2.3529,-2.3516,-2.3513,-2.3541,-2.354,-2.3547,-2.3547,-2.3546,-2.3546,0,-2.266,-2.2716,-2.2791,-2.2875,-2.2898,-2.2938,-2.3012,-2.3053,-2.3098,-2.3162,-2.318,-2.3251,-2.3318,-2.3375,-2.3464,-2.3492,-2.3563,-2.3574,-2.354,-2.3547,-2.3572,-2.357,-2.3637,-2.365,-2.3614,-2.3614,-2.3615,0,-2.2676,-2.2717,-2.2807,-2.2845,-2.2885,-2.2944,-2.2987,-2.3044,-2.3087,-2.3168,-2.3201,-2.3272,-2.3332,-2.3439,-2.3499,-2.3568,-2.3582,-2.3602,-2.3593,-2.358,-2.3587,-2.3585,-2.3591,-2.3602,-2.3602,-2.3603,-2.3603,0,-2.2701,-2.2728,-2.2788,-2.2859,-2.2909,-2.2967,-2.3027,-2.3055,-2.3124,-2.317,-2.3241,-2.3287,-2.338,-2.3451,-2.3527,-2.3571,-2.36,-2.3605,-2.3616,-2.3604,-2.3584,-2.3599,-2.3545,-2.3603,-2.3603,-2.3603,-2.3603,-2.3603,-2.2711,-2.2751,-2.2822,-2.2888,-2.2939,-2.2995,-2.3039,-2.3091,-2.3151,-2.3232,-2.3262,-2.3335,-2.3405,-2.351,-2.3555,-2.3614,-2.3618,-2.3632,-2.3636,-2.3639,-2.3639,-2.3573,-2.3627,-2.3627,-2.3628,-2.3628,-2.3628,0,-2.274,-2.2789,-2.285,-2.2933,-2.2986,-2.3009,-2.3077,-2.312,-2.3184,-2.3247,-2.3306,-2.339,-2.346,-2.3527,-2.3601,-2.3636,-2.3651,-2.3654,-2.3653,-2.3663,-2.363,-2.3615,-2.364,-2.364,-2.364,-2.364,-2.364,-2.364,-2.2762,-2.2831,-2.2868,-2.2964,-2.3013,-2.3086,-2.3123,-2.3176,-2.3227,-2.3318,-2.3378,-2.3421,-2.3486,-2.3567,-2.3633,-2.3651,-2.3678,-2.3678,-2.3699,-2.3667,-2.3665,-2.3663,-2.365,-2.3682,-2.3682,-2.3729,-2.3729,-2.3729]}]]